Voltar ao catálogo

FENGYUN 1C DEB

AtivoSSO
NORAD 31726·DEBRIS·🇨🇳 China

Lançado May 10, 1999 de Taiyuan Satellite Launch Center

Loading…

Próximas Passagens (próximas 24 horas)

TLE

EnvelhecendoSource: Space-Track

Época: Sep 5, 2026, 20:33 UTC

1 31726U 99025CDZ 26248.85669275  .00000840  00000-0  36575-3 0  9995
2 31726  98.6876 269.0428 0231442 315.0750 169.8553 14.13376705678187

Acompanhe FENGYUN 1C DEB em tempo real com AllMySat

Download on the App Store